Date String (YYYY-MM-DD hh:mm:ss) UTC,Instrument flags,Ambient pressure (hPa),Sample flow (lpm),Bypass flow (lpm),Sample temperature (°C),Ambient temperature (°C),ASC tube jacket temperature (°C),LED temperature (°C),Box temperature (°C),Sample RH (%),Span deviation,Mass concentration (μg/m³),Mass concentration (μg/m³),Mass concentration (μg/m³)
DateTimeUTC,F1_M11,P_M11,Q1_M11,Q2_M11,T1_M11,T2_M11,T3_M11,T4_M11,T5_M11,U1_M11,ZSPAN_M11,X2_M11,X0_M11,X1_M11
2022-11-24 03:00:00,,0826.2,5.00,0.00,22.1,20.9,00.0,31.0,24.0,11.8,0000.0,0001.19,0002.92,0001.06
2022-11-24 03:01:00,,0826.2,5.00,0.00,22.1,20.8,00.0,31.0,24.0,11.9,0000.0,0001.20,0003.23,0001.06
2022-11-24 03:02:00,,0826.1,5.00,0.00,22.1,20.8,00.0,31.0,24.0,12.0,0000.0,0001.21,0003.25,0001.06
2022-11-24 03:03:00,,0826.2,5.00,0.00,22.1,20.9,00.0,31.0,24.0,12.1,0000.0,0001.21,0003.26,0001.06
2022-11-24 03:04:00,,0826.2,5.00,0.00,22.1,20.9,00.0,31.0,24.0,12.0,0000.0,0001.25,0003.32,0001.08
2022-11-24 03:05:00,,0826.2,5.00,0.00,22.1,20.9,00.0,31.0,24.0,12.1,0000.0,0001.27,0003.35,0001.11
2022-11-24 03:06:00,,0826.2,5.00,0.00,22.1,20.9,00.0,31.0,24.0,12.2,0000.0,0001.28,0003.36,0001.14
2022-11-24 03:07:00,,0826.2,5.00,0.00,22.1,20.9,00.0,31.0,24.0,12.3,0000.0,0001.32,0003.40,0001.16
2022-11-24 03:08:00,,0826.2,5.00,0.00,22.1,20.9,00.0,31.0,24.0,12.4,0000.0,0001.36,0003.46,0001.18
2022-11-24 03:09:00,,0826.2,5.00,0.00,22.1,20.9,00.0,31.1,24.0,12.4,0000.0,0001.43,0003.14,0001.22
2022-11-24 03:10:00,,0826.2,5.01,0.00,22.1,20.9,00.0,31.1,24.0,12.4,0000.0,0001.50,0002.43,0001.25
2022-11-24 03:11:00,,0826.3,5.00,0.00,22.1,20.9,00.0,31.0,24.0,12.4,0000.0,0001.54,0002.48,0001.29
2022-11-24 03:12:00,,0826.3,5.00,0.00,22.1,20.9,00.0,31.0,24.0,12.3,0000.0,0001.59,0002.27,0001.34
2022-11-24 03:13:00,,0826.4,4.99,0.00,22.1,20.9,00.0,31.0,24.0,12.4,0000.0,0001.64,0002.33,0001.38
2022-11-24 03:14:00,,0826.5,4.99,0.00,22.1,20.8,00.0,31.0,24.0,12.4,0000.0,0001.68,0002.39,0001.43
2022-11-24 03:15:00,,0826.5,4.99,0.00,22.1,20.8,00.0,31.0,24.0,12.5,0000.0,0001.71,0002.41,0001.46
2022-11-24 03:16:00,,0826.5,5.02,0.00,22.1,20.8,00.0,31.0,24.0,12.6,0000.0,0001.76,0002.51,0001.50
2022-11-24 03:17:00,,0826.5,4.99,0.00,22.1,20.8,00.0,31.0,24.0,12.7,0000.0,0001.84,0002.81,0001.52
2022-11-24 03:18:00,,0826.6,5.00,0.00,22.1,20.8,00.0,31.0,24.0,12.7,0000.0,0001.90,0002.98,0001.54
2022-11-24 03:19:00,,0826.5,5.00,0.00,22.1,21.1,00.0,31.0,24.1,12.7,0000.0,0001.95,0003.16,0001.58
2022-11-24 03:20:00,,0826.5,5.00,0.00,22.2,22.0,00.0,31.0,24.3,12.5,0000.0,0001.95,0003.08,0001.59
2022-11-24 03:21:00,,0826.6,5.00,0.00,22.3,22.5,00.0,31.0,24.4,12.5,0000.0,0001.94,0003.14,0001.61
2022-11-24 03:22:00,,0826.7,4.99,0.00,22.4,22.2,00.0,31.1,24.4,12.6,0000.0,0001.94,0003.28,0001.62
2022-11-24 03:23:00,,0826.7,5.00,0.00,22.4,22.0,00.0,31.1,24.4,12.6,0000.0,0001.96,0003.31,0001.64
2022-11-24 03:24:00,,0826.7,5.00,0.00,22.4,21.8,00.0,31.1,24.4,12.6,0000.0,0001.97,0003.34,0001.65
2022-11-24 03:25:00,,0826.7,5.01,0.00,22.4,21.7,00.0,31.2,24.3,12.6,0000.0,0002.00,0003.41,0001.66
2022-11-24 03:26:00,,0826.7,5.01,0.00,22.4,21.6,00.0,31.2,24.3,12.6,0000.0,0002.01,0003.45,0001.67
2022-11-24 03:27:00,,0826.7,4.99,0.00,22.4,21.5,00.0,31.2,24.3,12.6,0000.0,0002.01,0003.41,0001.66
2022-11-24 03:28:00,,0826.7,4.99,0.00,22.4,21.4,00.0,31.2,24.3,12.6,0000.0,0002.00,0003.29,0001.67
2022-11-24 03:29:00,,0826.7,5.00,0.00,22.4,21.4,00.0,31.2,24.3,12.6,0000.0,0001.99,0003.28,0001.69
2022-11-24 03:30:00,,0826.7,5.01,0.00,22.4,21.3,00.0,31.2,24.3,12.6,0000.0,0001.96,0003.14,0001.71
2022-11-24 03:31:00,,0826.7,5.00,0.00,22.4,21.3,00.0,31.2,24.3,12.7,0000.0,0001.96,0003.12,0001.71
2022-11-24 03:32:00,,0826.8,5.00,0.00,22.4,21.3,00.0,31.2,24.3,12.7,0000.0,0001.99,0003.19,0001.71
2022-11-24 03:33:00,,0826.8,5.00,0.00,22.4,21.3,00.0,31.2,24.3,12.8,0000.0,0002.02,0003.12,0001.71
2022-11-24 03:34:00,,0826.8,5.00,0.00,22.4,21.3,00.0,31.3,24.3,12.9,0000.0,0002.01,0003.10,0001.72
2022-11-24 03:35:00,,0827.0,4.99,0.00,22.4,21.3,00.0,31.3,24.3,12.9,0000.0,0002.01,0003.07,0001.72
2022-11-24 03:36:00,,0826.8,5.01,0.00,22.4,21.3,00.0,31.3,24.3,12.9,0000.0,0002.02,0003.08,0001.72
2022-11-24 03:37:00,,0827.0,5.02,0.00,22.4,21.3,00.0,31.3,24.3,13.0,0000.0,0002.01,0003.02,0001.72
2022-11-24 03:38:00,,0826.9,5.00,0.00,22.4,21.2,00.0,31.3,24.3,13.0,0000.0,0002.05,0003.09,0001.73
2022-11-24 03:39:00,,0826.9,4.99,0.00,22.4,21.2,00.0,31.3,24.3,13.0,0000.0,0002.07,0003.15,0001.73
2022-11-24 03:40:00,,0826.9,5.00,0.00,22.4,21.2,00.0,31.3,24.3,13.0,0000.0,0002.08,0003.10,0001.74
2022-11-24 03:41:00,,0827.0,5.01,0.00,22.4,21.2,00.0,31.3,24.3,13.0,0000.0,0002.09,0003.12,0001.73
2022-11-24 03:42:00,,0826.9,5.01,0.00,22.4,21.2,00.0,31.3,24.3,13.0,0000.0,0002.13,0003.23,0001.74
2022-11-24 03:43:00,,0827.0,5.00,0.00,22.4,21.2,00.0,31.3,24.3,13.1,0000.0,0002.11,0003.08,0001.75
2022-11-24 03:44:00,,0827.4,4.99,0.00,22.4,21.2,00.0,31.3,24.3,13.1,0000.0,0002.10,0003.03,0001.77
2022-11-24 03:45:00,,0827.0,4.99,0.00,22.4,21.2,00.0,31.3,24.2,13.1,0000.0,0002.10,0003.00,0001.77
2022-11-24 03:46:00,,0827.0,5.01,0.00,22.3,21.2,00.0,31.3,24.2,13.1,0000.0,0002.13,0003.12,0001.78
2022-11-24 03:47:00,,0827.2,4.99,0.00,22.3,21.2,00.0,31.3,24.2,13.1,0000.0,0002.13,0003.27,0001.79
2022-11-24 03:48:00,,0827.0,5.02,0.00,22.3,21.2,00.0,31.3,24.2,13.2,0000.0,0002.14,0003.32,0001.79
2022-11-24 03:49:00,,0827.0,4.99,0.00,22.3,21.1,00.0,31.3,24.2,13.2,0000.0,0002.15,0003.34,0001.80
2022-11-24 03:50:00,,0827.1,5.00,0.00,22.3,21.1,00.0,31.3,24.2,13.2,0000.0,0002.08,0003.13,0001.79
2022-11-24 03:51:00,,0827.3,5.00,0.00,22.3,21.1,00.0,31.3,24.2,13.2,0000.0,0002.06,0003.05,0001.78
2022-11-24 03:52:00,,0827.2,4.99,0.00,22.3,21.1,00.0,31.3,24.2,13.2,0000.0,0002.04,0003.12,0001.77
2022-11-24 03:53:00,,0827.0,5.00,0.00,22.3,21.0,00.0,31.3,24.2,13.2,0000.0,0001.99,0002.99,0001.75
2022-11-24 03:54:00,,0827.3,5.00,0.00,22.3,21.0,00.0,31.2,24.2,13.2,0000.0,0001.99,0003.01,0001.73
2022-11-24 03:55:00,,0827.3,4.99,0.00,22.3,21.0,00.0,31.2,24.2,13.2,0000.0,0002.00,0003.11,0001.71
2022-11-24 03:56:00,,0827.1,5.00,0.00,22.3,21.0,00.0,31.2,24.2,13.2,0000.0,0001.99,0003.11,0001.68
2022-11-24 03:57:00,,0827.1,5.00,0.00,22.3,21.0,00.0,31.2,24.1,13.0,0000.0,0001.95,0002.98,0001.66
2022-11-24 03:58:00,,0827.2,5.00,0.00,22.3,21.0,00.0,31.2,24.1,13.0,0000.0,0001.90,0003.06,0001.63
2022-11-24 03:59:00,,0827.2,5.00,0.00,22.3,21.0,00.0,31.2,24.1,13.0,0000.0,0001.90,0003.10,0001.60
